[[{"header":{"parameterUnit":"m.s-1","parameterCategory":1,"la1":30.2991,"la2":30.254,"lo1":-89.0895,"lo2":-89.0444,"dy":0.0017,"dx":0.0017,"nx":28,"ny":28,"refTime":"2025-11-14T03:00:00:Z","depth":0,"parameterNumber":2,"parameterNumberName":"U-component_of_WINDS"},"data":[0,0,0,0,0,0,0,0,0,0,0,0,0,0,0,0,0,0,0,0,0,0,0,0,0,0,0,0,0,0,0,0,0,0,0,0,0,0,0,0,0,0,0,0,0,0,0,0,0,0,0,0,0,0,0,0,0,0,1.2348,1.2349,0,1.2437,1.2438,1.2439,1.245,1.2449,1.2449,1.2448,1.2539,1.2543,1.2546,0,0,0,0,0,0,0,0,0,0,0,0,0,1.2188,1.2191,1.2348,1.2349,1.235,1.2437,1.2438,1.2439,1.245,1.2449,1.2448,1.2447,1.2538,1.2542,1.2546,0,0,0,0,0,0,0,0,0,0,0,0,0,1.2266,1.2192,1.2347,1.2366,1.2369,1.2437,1.2438,1.244,1.2451,1.2449,1.2448,1.2447,1.2537,1.2542,1.2547,1.2602,0,0,1.2561,1.2564,0,0,0,0,0,0,0,0,1.2261,1.2271,1.2362,1.2365,1.2368,1.2431,1.2415,1.2494,1.2451,1.2419,1.2448,1.2446,1.2504,1.2512,1.2532,1.2607,1.2611,1.2562,1.2565,1.2567,1.2568,0,0,0,0,0,0,0,1.2256,1.2268,1.2383,1.2363,1.2367,1.237,1.238,1.243,1.2468,1.2422,1.2423,1.2434,1.2506,1.2527,1.2534,1.2612,1.2562,1.2566,1.2569,1.2571,1.2739,1.274,0,0,0,0,0,0,1.2247,1.2263,1.238,1.2386,1.231,1.2374,1.2385,1.2412,1.2468,1.2475,1.2435,1.2434,1.2519,1.2528,1.2537,1.2606,1.2567,1.2571,1.2574,1.2737,1.2739,1.2741,0,0,0,0,0,0,1.2243,1.2257,1.2377,1.2325,1.234,1.2378,1.2409,1.2415,1.2436,1.2477,1.2484,1.2449,1.2518,1.253,1.2586,1.261,1.2574,1.2578,1.2736,1.2738,1.274,1.2745,0,0,0,0,0,0,1.2239,1.2256,1.2277,1.2325,1.2343,1.2424,1.241,1.2417,1.2444,1.2444,1.2492,1.2499,1.2518,1.2579,1.2591,1.2616,1.2582,1.2734,1.2737,1.2739,1.2743,1.2747,1.2751,0,0,0,0,0,1.2233,1.2275,1.2278,1.2292,1.237,1.2425,1.2435,1.2456,1.2446,1.2467,1.2494,1.2498,1.2606,1.2585,1.2598,1.2625,1.2732,1.2736,1.2739,1.2741,1.2746,1.2751,0,0,0,0,0,0,1.2228,1.2281,1.2285,1.2344,1.238,1.2427,1.2455,1.2461,1.2501,1.2499,1.2524,1.2535,1.259,1.2613,1.2589,1.2682,1.2668,1.2674,1.2665,1.267,1.2674,1.2667,1.2586,0,0,0,0,0,1.2233,1.2273,1.2318,1.2365,1.2383,1.2416,1.2441,1.2454,1.2493,1.2508,1.2539,1.2576,1.2619,1.2646,1.2687,1.2747,1.2758,1.2772,1.2776,1.2779,1.2784,1.2818,1.2825,1.2752,1.2752,1.2752,0,0,1.2245,1.2279,1.2303,1.2365,1.2395,1.2436,1.2429,1.2472,1.2503,1.2515,1.2569,1.2594,1.2637,1.2696,1.2723,1.2717,1.2807,1.2784,1.2786,1.2789,1.2823,1.2829,1.2835,1.2755,1.2754,1.2754,0,0,1.2288,1.2318,1.236,1.2391,1.2436,1.2458,1.2468,1.2515,1.2531,1.2587,1.2596,1.2634,1.2707,1.2737,1.2763,1.2819,1.2824,1.2832,1.2853,1.2886,1.2891,1.2896,1.2917,1.2924,1.2837,1.2837,1.2837,0,1.2296,1.2359,1.2382,1.2425,1.2453,1.2466,1.2509,1.2538,1.2594,1.2613,1.2605,1.2697,1.2728,1.2794,1.2808,1.2828,1.2841,1.2826,1.2889,1.2894,1.2899,1.2919,1.2926,1.2838,1.2838,1.2838,1.2838,0,1.2367,1.2411,1.244,1.2494,1.2525,1.2569,1.2599,1.2628,1.2639,1.2662,1.2719,1.2756,1.2806,1.2823,1.2834,1.2891,1.2886,1.2883,1.2869,1.2906,1.2925,1.2933,1.2839,1.2839,1.2839,1.2838,0,0,1.2406,1.2474,1.2485,1.251,1.2562,1.2596,1.2641,1.269,1.2714,1.2753,1.2792,1.2854,1.2852,1.2881,1.2896,1.2925,1.2968,1.2919,1.2921,1.2927,1.3034,1.3034,1.3043,1.2972,1.2974,1.2975,1.303,0,1.2454,1.2534,1.2557,1.2624,1.2665,1.2679,1.2719,1.2755,1.2779,1.2817,1.2843,1.2886,1.2881,1.2899,1.2928,1.2956,1.299,1.2953,1.3008,1.301,1.2996,1.3052,1.3053,1.3103,1.3037,1.3039,1.304,0,1.252,1.2561,1.2632,1.268,1.2698,1.2733,1.278,1.2817,1.2859,1.2874,1.2907,1.2921,1.2969,1.2953,1.3021,1.2995,1.302,1.3037,1.304,1.3045,1.3026,1.3058,1.3119,1.3126,1.3051,1.305,1.305,0,1.254,1.2613,1.2666,1.2687,1.2745,1.2769,1.2794,1.2835,1.2864,1.2906,1.2924,1.2971,1.2996,1.3033,1.3059,1.3045,1.3124,1.3111,1.3138,1.3137,1.3152,1.3151,1.3217,1.317,1.317,1.317,1.317,0,1.259,1.2633,1.2676,1.2708,1.2758,1.2785,1.2833,1.2859,1.2896,1.2934,1.2949,1.2985,1.3018,1.3058,1.3079,1.3131,1.3143,1.3157,1.3161,1.3155,1.3153,1.317,1.3167,1.3172,1.3171,1.3171,1.3171,0,1.262,1.2651,1.2709,1.276,1.2773,1.2807,1.2851,1.2883,1.2908,1.2956,1.2969,1.3008,1.3056,1.3086,1.3147,1.3162,1.322,1.3224,1.3205,1.3207,1.3233,1.3229,1.3311,1.3324,1.3269,1.3269,1.327,0,1.2649,1.2683,1.2738,1.2765,1.279,1.2833,1.2862,1.2891,1.2921,1.2973,1.2999,1.3049,1.3089,1.3166,1.32,1.3247,1.3252,1.3278,1.3259,1.3252,1.3252,1.3249,1.3253,1.328,1.3281,1.3281,1.3281,0,1.2698,1.2712,1.2753,1.2801,1.2836,1.2875,1.2913,1.2934,1.297,1.3003,1.3053,1.3085,1.3148,1.3197,1.3248,1.3274,1.3284,1.3288,1.3296,1.3289,1.3276,1.3283,1.3212,1.3285,1.3285,1.3284,1.3284,1.3284,1.2728,1.2759,1.2803,1.2849,1.2882,1.2918,1.2951,1.2981,1.3023,1.3076,1.3091,1.3143,1.3187,1.3256,1.3284,1.3326,1.3322,1.3335,1.3338,1.334,1.3341,1.3271,1.3335,1.3335,1.3335,1.3335,1.3335,0,1.2777,1.2806,1.2849,1.2903,1.294,1.2947,1.2991,1.3021,1.3067,1.3106,1.3147,1.3205,1.3253,1.3292,1.3342,1.3368,1.3374,1.338,1.3378,1.3384,1.3341,1.3328,1.3374,1.3374,1.3374,1.3374,1.3374,1.3374,1.2806,1.2859,1.2879,1.2949,1.2978,1.3029,1.3054,1.3088,1.312,1.3184,1.3224,1.325,1.329,1.3343,1.3388,1.3398,1.3415,1.3421,1.3432,1.3391,1.3387,1.3382,1.337,1.3424,1.3425,1.3471,1.3471,1.3472]},{"header":{"parameterUnit":"m.s-1","parameterCategory":1,"la1":30.2991,"la2":30.254,"lo1":-89.0895,"lo2":-89.0444,"dy":0.0017,"dx":0.0017,"nx":28,"ny":28,"refTime":"2025-11-14T03:00:00:Z","depth":0,"parameterNumber":3,"parameterNumberName":"V-component_of_WINDS"},"data":[0,0,0,0,0,0,0,0,0,0,0,0,0,0,0,0,0,0,0,0,0,0,0,0,0,0,0,0,0,0,0,0,0,0,0,0,0,0,0,0,0,0,0,0,0,0,0,0,0,0,0,0,0,0,0,0,0,0,1.9024,1.9023,0,1.8957,1.8956,1.8955,1.8916,1.8916,1.8916,1.8916,1.884,1.8838,1.8837,0,0,0,0,0,0,0,0,0,0,0,0,0,1.9114,1.9112,1.9024,1.9023,1.9022,1.8957,1.8956,1.8955,1.8916,1.8916,1.8916,1.8916,1.8841,1.8839,1.8836,0,0,0,0,0,0,0,0,0,0,0,0,0,1.9063,1.9112,1.9024,1.8995,1.8992,1.8957,1.8956,1.8955,1.8916,1.8916,1.8916,1.8916,1.8842,1.8839,1.8836,1.8822,0,0,1.8827,1.8826,0,0,0,0,0,0,0,0,1.9066,1.906,1.9,1.8997,1.8994,1.8945,1.896,1.891,1.8916,1.8945,1.8916,1.8916,1.8875,1.8869,1.8857,1.8819,1.8816,1.8827,1.8825,1.8824,1.8823,0,0,0,0,0,0,0,1.907,1.9063,1.8997,1.9,1.8995,1.8984,1.8977,1.895,1.8911,1.8942,1.8939,1.8932,1.8873,1.886,1.8855,1.8815,1.8827,1.8825,1.8823,1.8822,1.8762,1.8762,0,0,0,0,0,0,1.9079,1.9066,1.8999,1.8995,1.903,1.8982,1.8974,1.896,1.8912,1.8904,1.8933,1.8931,1.8865,1.8858,1.8852,1.8833,1.8824,1.8822,1.882,1.8762,1.8762,1.8762,0,0,0,0,0,0,1.9081,1.9073,1.9002,1.903,1.902,1.8981,1.8966,1.8959,1.8946,1.8904,1.8897,1.8927,1.8864,1.8856,1.8831,1.883,1.882,1.8818,1.8762,1.8762,1.8762,1.8795,0,0,0,0,0,0,1.9083,1.9074,1.907,1.903,1.9019,1.8984,1.8966,1.8958,1.8942,1.8939,1.8897,1.8889,1.8863,1.8835,1.8828,1.8826,1.8816,1.8762,1.8762,1.8762,1.8794,1.8796,1.8798,0,0,0,0,0,1.9087,1.908,1.907,1.9062,1.9013,1.8984,1.8977,1.8949,1.8942,1.8937,1.891,1.8891,1.8831,1.8833,1.8824,1.8821,1.8761,1.8762,1.8762,1.8793,1.8796,1.8798,0,0,0,0,0,0,1.9118,1.9074,1.9062,1.9043,1.9018,1.8977,1.897,1.8953,1.8927,1.8925,1.889,1.888,1.8858,1.8837,1.884,1.8805,1.8794,1.8793,1.882,1.8823,1.8825,1.883,1.8813,0,0,0,0,0,1.9124,1.9106,1.9067,1.9054,1.9042,1.9008,1.8994,1.8975,1.8947,1.8935,1.8906,1.8878,1.8852,1.8836,1.8811,1.879,1.878,1.8784,1.8786,1.8788,1.8787,1.8775,1.8776,1.8763,1.8763,1.8763,0,0,1.9133,1.9107,1.9097,1.906,1.9038,1.9019,1.8999,1.8979,1.8964,1.8931,1.8906,1.8884,1.885,1.8827,1.8816,1.8809,1.8789,1.8789,1.8791,1.8788,1.8775,1.8777,1.8778,1.8763,1.8763,1.8763,0,0,1.9141,1.912,1.9107,1.9086,1.9054,1.9031,1.9028,1.899,1.8975,1.895,1.8925,1.8906,1.8863,1.884,1.8822,1.8822,1.8803,1.8815,1.8826,1.8815,1.8816,1.8816,1.8816,1.8817,1.8814,1.8814,1.8814,0,1.9156,1.9128,1.9101,1.9084,1.9067,1.9039,1.9025,1.9005,1.8965,1.8954,1.8947,1.8894,1.8868,1.884,1.884,1.8827,1.8821,1.8819,1.8818,1.8819,1.8819,1.8818,1.8818,1.8815,1.8815,1.8815,1.8815,0,1.9149,1.913,1.9122,1.9088,1.9071,1.9054,1.9023,1.9009,1.8992,1.8969,1.8944,1.8913,1.8881,1.8872,1.8854,1.8841,1.8838,1.8825,1.8813,1.8822,1.8821,1.8821,1.8818,1.8817,1.8817,1.8816,0,0,1.9174,1.9126,1.9123,1.9108,1.9071,1.9054,1.9036,1.9007,1.8996,1.8969,1.8952,1.8918,1.8906,1.8886,1.8865,1.8855,1.8857,1.8843,1.8842,1.8847,1.8841,1.8851,1.8851,1.8845,1.8844,1.8844,1.8844,0,1.9176,1.9145,1.9121,1.9098,1.908,1.9053,1.9038,1.9012,1.8991,1.8971,1.8947,1.8923,1.8909,1.8897,1.8886,1.8859,1.8855,1.8859,1.8827,1.8827,1.8837,1.885,1.886,1.8861,1.8843,1.8843,1.8843,0,1.9175,1.9152,1.9129,1.9095,1.9086,1.9072,1.9044,1.9026,1.8996,1.8981,1.896,1.8939,1.8917,1.8907,1.8876,1.888,1.8865,1.885,1.8849,1.8845,1.8835,1.8846,1.8861,1.8861,1.8842,1.8842,1.8842,0,1.9195,1.9159,1.914,1.9127,1.9087,1.9078,1.906,1.9031,1.9015,1.899,1.8979,1.895,1.8935,1.8912,1.8883,1.8879,1.8855,1.8843,1.8841,1.8842,1.8837,1.8837,1.8849,1.8828,1.8828,1.8828,1.8828,0,1.9201,1.9187,1.9149,1.9138,1.9122,1.9093,1.9077,1.9057,1.9031,1.9014,1.8988,1.8972,1.8935,1.8914,1.889,1.8868,1.8861,1.8848,1.8841,1.885,1.8852,1.884,1.8839,1.8828,1.8828,1.8828,1.8828,0,1.9221,1.9195,1.9173,1.9137,1.9128,1.9118,1.9086,1.9073,1.9051,1.903,1.9023,1.8988,1.8962,1.8931,1.8894,1.8879,1.8858,1.8849,1.8869,1.8866,1.8866,1.8866,1.887,1.8869,1.8849,1.8849,1.8849,0,1.9226,1.9215,1.9179,1.9167,1.9151,1.9131,1.9116,1.9087,1.9072,1.9038,1.9029,1.9001,1.8978,1.8938,1.8907,1.8879,1.8869,1.8872,1.8864,1.8874,1.8869,1.887,1.8869,1.8874,1.8875,1.8875,1.8875,0,1.9237,1.9225,1.9205,1.9181,1.9164,1.9143,1.912,1.9111,1.9077,1.9061,1.9036,1.9018,1.8982,1.8955,1.8923,1.8902,1.8883,1.8878,1.8876,1.8885,1.8897,1.889,1.8875,1.8878,1.8878,1.8878,1.8878,1.8877,1.925,1.9239,1.9213,1.9191,1.9172,1.9152,1.9139,1.9116,1.9095,1.9065,1.9049,1.9024,1.8994,1.895,1.893,1.8909,1.8902,1.8899,1.8898,1.8898,1.8901,1.8901,1.8903,1.8902,1.8902,1.8902,1.8902,0,1.926,1.9242,1.9223,1.9193,1.9176,1.9162,1.9137,1.9123,1.9102,1.9077,1.9056,1.9026,1.9,1.8969,1.894,1.8929,1.8919,1.8922,1.8923,1.8918,1.8908,1.8913,1.8931,1.8931,1.8931,1.8931,1.8931,1.8931,1.9263,1.9245,1.923,1.9202,1.9184,1.9161,1.9148,1.9129,1.9109,1.9078,1.9057,1.9038,1.901,1.8979,1.8954,1.8946,1.8936,1.8942,1.893,1.8921,1.8919,1.8917,1.8921,1.894,1.894,1.8942,1.8942,1.8942]}]]